TimeCST,TemperatureF,Dew PointF,Humidity,Sea Level PressureIn,VisibilityMPH,Wind Direction,Wind SpeedMPH,Gust SpeedMPH,PrecipitationIn,Events,Conditions,WindDirDegrees,DateUTC
12:53 AM,42.1,27.0,55,30.23,10.0,South,12.7,-,N/A,,Clear,190,2012-11-15 06:53:00
1:53 AM,39.9,27.0,60,30.22,10.0,South,12.7,-,N/A,,Clear,190,2012-11-15 07:53:00
2:53 AM,39.9,27.0,60,30.21,10.0,South,13.8,-,N/A,,Clear,180,2012-11-15 08:53:00
3:53 AM,39.0,27.0,62,30.20,10.0,South,12.7,-,N/A,,Clear,180,2012-11-15 09:53:00
4:53 AM,37.9,27.0,65,30.22,10.0,South,11.5,-,N/A,,Clear,180,2012-11-15 10:53:00
5:53 AM,37.0,27.0,67,30.22,10.0,South,13.8,-,N/A,,Clear,180,2012-11-15 11:53:00
6:53 AM,37.9,27.0,65,30.23,10.0,South,13.8,-,N/A,,Clear,190,2012-11-15 12:53:00
7:53 AM,37.9,28.0,68,30.23,10.0,South,11.5,-,N/A,,Clear,180,2012-11-15 13:53:00
8:53 AM,44.1,28.9,55,30.25,10.0,South,17.3,-,N/A,,Clear,190,2012-11-15 14:53:00
9:53 AM,48.0,28.9,48,30.26,10.0,SSW,15.0,-,N/A,,Clear,200,2012-11-15 15:53:00
10:53 AM,48.9,30.0,48,30.27,10.0,SSW,9.2,-,N/A,,Clear,200,2012-11-15 16:53:00
11:53 AM,54.0,34.0,47,30.25,10.0,South,13.8,-,N/A,,Clear,190,2012-11-15 17:53:00
12:53 PM,57.0,37.9,49,30.21,10.0,South,13.8,-,N/A,,Clear,190,2012-11-15 18:53:00
1:53 PM,60.1,39.9,47,30.20,10.0,SSW,11.5,-,N/A,,Clear,210,2012-11-15 19:53:00
2:53 PM,62.1,42.1,48,30.19,10.0,SSW,15.0,-,N/A,,Clear,200,2012-11-15 20:53:00
3:53 PM,62.1,43.0,50,30.20,10.0,SSW,10.4,-,N/A,,Clear,200,2012-11-15 21:53:00
4:53 PM,60.1,43.0,53,30.22,10.0,South,12.7,-,N/A,,Clear,170,2012-11-15 22:53:00
5:53 PM,52.0,42.1,69,30.25,10.0,SSE,9.2,-,N/A,,Clear,150,2012-11-15 23:53:00
6:53 PM,48.0,41.0,77,30.28,10.0,SE,8.1,-,N/A,,Clear,130,2012-11-16 00:53:00
7:53 PM,45.0,39.9,82,30.30,9.0,East,8.1,-,N/A,,Clear,80,2012-11-16 01:53:00
8:53 PM,44.1,39.0,82,30.33,10.0,East,8.1,-,N/A,,Clear,90,2012-11-16 02:53:00
9:53 PM,44.1,39.0,82,30.34,10.0,SE,6.9,-,N/A,,Clear,140,2012-11-16 03:53:00
10:53 PM,42.1,37.0,82,30.34,10.0,East,5.8,-,N/A,,Clear,80,2012-11-16 04:53:00
11:53 PM,43.0,37.9,82,30.36,10.0,ESE,3.5,-,N/A,,Mostly Cloudy,120,2012-11-16 05:53:00